Regional Weather Roundup
Issued by NWS

Home | Current Version | Previous Version | Graphics & Text | Print | Product List | Glossary On
Versions: 1 2 3 4 5 6 7 8 9 10 11 12 13 14 15 16 17 18 19 20 21 22 23 24 25 26 27 28 29 30 31 32 33 34 35 36 37 38 39 40 41 42 43 44 45 46 47 48 49 50
941
ASUS45 KBOI 061610
RWRID

IDAHO REGIONAL WEATHER ROUNDUP
NATIONAL WEATHER SERVICE BOISE ID
1000 AM MDT FRI MAY 06 2016

NOTE: "FAIR" INDICATES FEW OR NO CLOUDS BELOW 12000 FEET
WITH NO SIGNIFICANT WEATHER AND/OR OBSTRUCTIONS TO VISIBILITY

IDZ012-014-061700-
SOUTHWEST IDAHO


CITY           SKY/WX    TMP DP  RH WIND       PRES   REMARKS
BOISE          CLOUDY    59  51  75 SW5       29.81F
CALDWELL       CLOUDY    62  52  69 W7        29.82F
MOUNTAIN HOME  PTSUNNY   58  49  72 NW3       29.84R
$$

IDZ016-017-061700-
SOUTHCENTRAL IDAHO


CITY           SKY/WX    TMP DP  RH WIND       PRES   REMARKS
BURLEY         CLOUDY    55  48  77 E3        29.87R
JEROME         CLOUDY    56  50  80 SW5       29.87R
TWIN FALLS     CLOUDY    58  49  72 N5        29.86R
$$

IDZ019>023-061700-
SOUTHEAST IDAHO


CITY           SKY/WX    TMP DP  RH WIND       PRES   REMARKS
IDAHO FALLS    CLOUDY    66  42  41 NE16G26   29.92F
POCATELLO      CLOUDY    61  44  53 N9        29.89R
REXBURG        CLOUDY    57  40  52 N16G23    29.96F
$$

IDZ006-010-011-018-031-032-061700-
CENTRAL IDAHO MOUNTAINS


CITY           SKY/WX    TMP DP  RH WIND       PRES   REMARKS
MCCALL         CLOUDY    56  43  61 CALM      29.94S
HAILEY         CLOUDY    57  45  62 W9        29.95S
STANLEY          N/A     51  38  60 N10       30.05F
SALMON         CLOUDY    57  43  58 NE7       30.03R
CHALLIS        CLOUDY    54  46  74 CALM      30.03F
$$

IDZ002-004-006-007-026-061700-
NORTHERN IDAHO


CITY           SKY/WX    TMP DP  RH WIND       PRES   REMARKS
LEWISTON       CLOUDY    61  56  83 W3        29.98S
LOWELL           N/A     58  56  93 CALM      29.98F
COEUR D`ALENE  MOSUNNY   64  48  55 N16G22    30.04S
MULLAN PASS    FOG       43  43 100 VRB5        N/A  VSB<1/4
$$




USA.gov is the U.S. government's official web portal to all federal, state and local government web resources and services.